Weather History for Athens, OH

Change the Weather History Date:

Thursday, March 21, 2013

  Actual Average (KPKB) Record (KPKB)
Temperature  
Mean Temperature 24 °F 45 °F  
Max Temperature 30 °F 56 °F 85 °F (2012)
Min Temperature 19 °F 34 °F 10 °F (1965)
Degree Days  
Heating Degree Days 40 20  
Month to date heating degree days 490  
Since 1 July heating degree days 4280  
Moisture  
Dew Point 11 °F    
Average Humidity 57    
Maximum Humidity 82    
Minimum Humidity 38    
Precipitation  
Precipitation 0.00 in 0.13 in 0.95 in (2001)
Month to date precipitation 2.49  
Year to date precipitation 8.14  
Sea Level Pressure  
Sea Level Pressure 29.95 in    
Wind  
Wind Speed 8 mph (West)    
Max Wind Speed 15 mph    
Max Gust Speed 23 mph    
Visibility 10 miles    
Events Snow    
T = Trace of Precipitation, MM = Missing Value Source: NWS Daily Summary

Daily Weather History Graph

Daily Weather History Graph

Search for Another Location

Airport:

Trip Planner

Search our weather history database for the weather conditions in past years. The results will help you decide how hot, cold, wet, or windy it might be!

Date:

Astronomy

Mar. 21, 2013 Rise Set
Actual Time 7:30 AM EDT 7:42 PM EDT
Civil Twilight 7:03 AM EDT 8:08 PM EDT
Nautical Twilight 6:32 AM EDT 8:40 PM EDT
Astronomical Twilight 6:00 AM EDT 9:12 PM EDT
Moon 2:12 PM EDT (3/21) 3:49 AM EDT (3/21)
Length of Visible Light 13h 05m
Length of Day
12h 11m
Waxing Gibbous, 68% of the Moon is Illuminated
Mar 21
Waxing Gibbous
Mar 27
Full
Apr 3
Last Quarter
Apr 10
New
Apr 18
First Quarter

Hourly Weather History & Observations

Time (EDT) Temp. Windchill Dew Point Humidity Pressure Visibility Wind Dir Wind Speed Gust Speed Precip Events Conditions
12:15 AM 25.2 °F 14.4 °F 9.9 °F 52% 29.97 in 10.0 mi WNW 11.5 mph - N/A   Clear
12:35 AM 24.8 °F 17.9 °F 9.3 °F 52% 29.97 in 10.0 mi WNW 5.8 mph 16.1 mph N/A   Clear
12:55 AM 24.1 °F 14.4 °F 8.6 °F 52% 29.97 in 10.0 mi WNW 9.2 mph - N/A   Clear
1:15 AM 23.7 °F 16.6 °F 8.4 °F 52% 29.97 in 10.0 mi WNW 5.8 mph - N/A   Clear
1:35 AM 23.2 °F 17.2 °F 8.2 °F 53% 29.96 in 10.0 mi WNW 4.6 mph - N/A   Clear
2:15 AM 21.2 °F - 9.3 °F 60% 29.95 in 10.0 mi Calm Calm - N/A   Clear
2:35 AM 20.8 °F 16.0 °F 10.4 °F 64% 29.95 in 10.0 mi WSW 3.5 mph - N/A   Scattered Clouds
2:55 AM 21.6 °F - 11.8 °F 66% 29.95 in 10.0 mi Calm Calm - N/A   Mostly Cloudy
3:15 AM 21.7 °F 17.0 °F 11.1 °F 64% 29.94 in 10.0 mi WSW 3.5 mph - N/A   Overcast
3:35 AM 21.2 °F 16.4 °F 11.5 °F 66% 29.94 in 10.0 mi WSW 3.5 mph - N/A   Overcast
3:55 AM 22.1 °F 14.7 °F 12.0 °F 65% 29.94 in 10.0 mi West 5.8 mph - N/A   Overcast
4:15 AM 23.0 °F 14.7 °F 11.7 °F 62% 29.93 in 10.0 mi West 6.9 mph - N/A   Overcast
4:35 AM 22.8 °F 16.7 °F 10.8 °F 60% 29.92 in 10.0 mi NW 4.6 mph - N/A   Overcast
4:55 AM 22.6 °F 11.9 °F 10.4 °F 59% 29.91 in 10.0 mi West 10.4 mph - N/A   Mostly Cloudy
5:15 AM 21.9 °F 13.4 °F 10.9 °F 63% 29.91 in 10.0 mi West 6.9 mph - N/A   Scattered Clouds
5:35 AM 21.9 °F 14.5 °F 11.8 °F 65% 29.91 in 10.0 mi West 5.8 mph - N/A   Scattered Clouds
5:55 AM 22.1 °F 17.4 °F 12.2 °F 66% 29.91 in 10.0 mi West 3.5 mph - N/A   Mostly Cloudy
6:15 AM 22.1 °F 14.7 °F 12.2 °F 66% 29.91 in 10.0 mi West 5.8 mph - N/A   Overcast
6:35 AM 21.7 °F 17.0 °F 12.4 °F 67% 29.91 in 10.0 mi West 3.5 mph - N/A   Overcast
6:55 AM 21.6 °F 15.3 °F 12.9 °F 69% 29.91 in 10.0 mi West 4.6 mph - N/A   Overcast
7:15 AM 20.1 °F 15.2 °F 12.7 °F 73% 29.91 in 10.0 mi West 3.5 mph - N/A   Scattered Clouds
7:35 AM 19.9 °F 12.1 °F 13.6 °F 77% 29.91 in 10.0 mi West 5.8 mph - N/A   Scattered Clouds
7:55 AM 20.8 °F 13.2 °F 14.0 °F 75% 29.91 in 10.0 mi West 5.8 mph - N/A   Overcast
8:15 AM 21.0 °F 12.4 °F 14.4 °F 75% 29.92 in 10.0 mi West 6.9 mph - N/A   Overcast
8:35 AM 21.7 °F 12.3 °F 14.9 °F 75% 29.92 in 10.0 mi WNW 8.1 mph - N/A   Overcast
8:55 AM 21.2 °F 11.7 °F 16.3 °F 82% 29.93 in 2.0 mi NNW 8.1 mph - N/A Snow Light Snow
9:15 AM 21.7 °F 12.3 °F 15.6 °F 77% 29.94 in 10.0 mi WNW 8.1 mph - N/A   Overcast
9:35 AM 22.1 °F 15.9 °F 12.6 °F 67% 29.94 in 10.0 mi NW 4.6 mph - N/A   Mostly Cloudy
9:55 AM 22.8 °F 14.5 °F 11.3 °F 61% 29.94 in 10.0 mi NW 6.9 mph - N/A   Mostly Cloudy
10:15 AM 23.0 °F 13.1 °F 10.0 °F 58% 29.95 in 10.0 mi WNW 9.2 mph - N/A   Overcast
10:35 AM 23.0 °F 12.4 °F 9.9 °F 57% 29.95 in 10.0 mi NW 10.4 mph 16.1 mph N/A   Overcast
10:55 AM 25.0 °F 14.2 °F 10.2 °F 54% 29.95 in 10.0 mi West 11.5 mph 16.1 mph N/A   Mostly Cloudy
11:15 AM 25.5 °F 16.9 °F 9.0 °F 50% 29.95 in 10.0 mi NW 8.1 mph - N/A   Mostly Cloudy
11:35 AM 24.8 °F 14.6 °F 8.6 °F 50% 29.95 in 10.0 mi West 10.4 mph - N/A   Overcast
11:55 AM 25.3 °F 15.3 °F 10.0 °F 52% 29.95 in 7.0 mi NW 10.4 mph 18.4 mph N/A   Overcast
12:15 PM 24.1 °F 15.2 °F 11.7 °F 59% 29.96 in 7.0 mi West 8.1 mph - N/A   Overcast
12:35 PM 25.9 °F 14.3 °F 8.8 °F 48% 29.96 in 10.0 mi WNW 13.8 mph 17.3 mph N/A   Overcast
12:55 PM 27.7 °F 16.1 °F 11.1 °F 50% 29.95 in 10.0 mi WNW 15.0 mph 23.0 mph N/A   Mostly Cloudy
1:15 PM 25.7 °F 13.5 °F 7.2 °F 45% 29.96 in 10.0 mi West 15.0 mph - N/A   Mostly Cloudy
1:35 PM 27.9 °F 16.8 °F 6.8 °F 41% 29.95 in 10.0 mi West 13.8 mph 21.9 mph N/A   Overcast
1:55 PM 26.6 °F 15.2 °F 5.7 °F 41% 29.96 in 10.0 mi NW 13.8 mph - N/A   Overcast
2:15 PM 27.1 °F 16.9 °F 5.7 °F 40% 29.96 in 10.0 mi WNW 11.5 mph 18.4 mph N/A   Mostly Cloudy
2:35 PM 27.5 °F 15.9 °F 5.0 °F 38% 29.95 in 10.0 mi WNW 15.0 mph - N/A   Scattered Clouds
2:55 PM 28.8 °F 20.2 °F 6.3 °F 39% 29.94 in 10.0 mi NNW 9.2 mph 16.1 mph N/A   Mostly Cloudy
3:15 PM 28.9 °F 18.2 °F 6.8 °F 39% 29.95 in 10.0 mi WNW 13.8 mph 20.7 mph N/A   Overcast
3:35 PM 28.6 °F 17.7 °F 8.2 °F 42% 29.95 in 10.0 mi NNW 13.8 mph 19.6 mph N/A   Overcast
3:55 PM 30.7 °F 20.4 °F 9.5 °F 41% 29.95 in 10.0 mi NW 13.8 mph 18.4 mph N/A   Mostly Cloudy
4:15 PM 29.1 °F 19.4 °F 7.9 °F 41% 29.95 in 10.0 mi NW 11.5 mph 17.3 mph N/A   Overcast
4:35 PM 29.3 °F 19.1 °F 8.2 °F 41% 29.95 in 10.0 mi West 12.7 mph 16.1 mph N/A   Overcast
4:55 PM 29.1 °F 23.0 °F 8.8 °F 43% 29.96 in 10.0 mi WNW 5.8 mph 16.1 mph N/A   Overcast
5:15 PM 29.7 °F 19.6 °F 9.0 °F 42% 29.96 in 10.0 mi West 12.7 mph 18.4 mph N/A   Overcast
5:35 PM 29.3 °F 20.8 °F 9.9 °F 44% 29.97 in 10.0 mi West 9.2 mph - N/A   Overcast
5:55 PM 29.1 °F 18.4 °F 10.9 °F 47% 29.97 in 10.0 mi West 13.8 mph - N/A   Overcast
6:15 PM 28.9 °F 20.4 °F 11.5 °F 48% 29.97 in 10.0 mi NW 9.2 mph 16.1 mph N/A   Overcast
6:35 PM 29.1 °F 20.6 °F 11.8 °F 49% 29.97 in 10.0 mi WNW 9.2 mph 16.1 mph N/A   Overcast
6:55 PM 28.9 °F 20.4 °F 11.7 °F 49% 29.97 in 10.0 mi West 9.2 mph - N/A   Overcast
7:15 PM 28.9 °F 20.4 °F 12.0 °F 49% 29.97 in 10.0 mi West 9.2 mph - N/A   Overcast
7:35 PM 28.4 °F 20.4 °F 11.8 °F 50% 29.98 in 10.0 mi West 8.1 mph - N/A   Overcast
7:55 PM 28.2 °F 20.2 °F 12.4 °F 52% 29.98 in 10.0 mi West 8.1 mph - N/A   Overcast
8:15 PM 27.3 °F 22.0 °F 12.9 °F 55% 29.98 in 10.0 mi West 4.6 mph - N/A   Mostly Cloudy
8:35 PM 27.5 °F 21.1 °F 13.5 °F 56% 29.98 in 10.0 mi WSW 5.8 mph - N/A   Overcast
8:55 PM 27.0 °F 20.5 °F 13.6 °F 57% 29.99 in 10.0 mi West 5.8 mph - N/A   Scattered Clouds
9:15 PM 25.0 °F 19.3 °F 14.0 °F 63% 29.99 in 10.0 mi WSW 4.6 mph - N/A   Scattered Clouds
9:35 PM 26.2 °F 20.7 °F 14.7 °F 62% 30.00 in 10.0 mi WSW 4.6 mph - N/A   Mostly Cloudy
9:55 PM 26.6 °F 21.2 °F 14.7 °F 61% 30.00 in 10.0 mi SW 4.6 mph - N/A   Overcast
10:15 PM 26.6 °F 21.2 °F 14.7 °F 61% 30.00 in 10.0 mi SW 4.6 mph - N/A   Overcast
10:35 PM 26.2 °F 19.6 °F 14.5 °F 61% 30.00 in 10.0 mi WSW 5.8 mph - N/A   Overcast
10:55 PM 25.3 °F 19.7 °F 14.5 °F 64% 30.00 in 10.0 mi WSW 4.6 mph - N/A   Scattered Clouds
11:15 PM 24.6 °F 18.8 °F 14.9 °F 67% 30.01 in 10.0 mi WSW 4.6 mph - N/A   Mostly Cloudy
11:35 PM 26.1 °F 19.4 °F 14.5 °F 62% 30.01 in 10.0 mi SW 5.8 mph - N/A   Overcast
11:55 PM 25.5 °F 19.9 °F 14.4 °F 63% 30.01 in 10.0 mi WSW 4.6 mph - N/A   Overcast